Rbgn^[z[y[W
メイン
   新天体発見情報
     Comet C/2022 S3 (PANSTARRS)
投稿するにはまず登録を

フラット表示 前のトピック | 次のトピック
投稿者 スレッド
佐藤裕久
投稿日時: 2022-10-12 18:41
モデレータ
登録日: 2005-6-12
居住地: 日本
投稿: 2697
オンライン
Comet C/2022 S3 (PANSTARRS)

R. Weryk (西オンタリオ大学,物理および天文学科)の通報によると、9月25日、Haleakala
にあるPan-STARRS1の1.8-m Ritchey-Chretien 反射望遠鏡で得た画像から彗星を発見した。
R. Werykは、9月26日UT、彼とR. Wainscoatが、Maunakeaにある3.6-m Canada-France-Hawaii
望遠鏡 (CFHT)で得た3枚の60秒gri-バンドフォローアップ画像から、0".6のシーイングで、
0".9 (半値全幅:FWHM)の非常に集光したコマと、p.a. 50-100°
の範囲に2"の広い尾が見える。
9月27日に得た追加のCFHT画像では、0"7のシーイングで 1"(FWHM)の集光したコマが見え、
こちらもp.a. 50-100°の範囲に2"の広い尾がある。
佐藤英貴氏 (東京都文京区)は、9月27.2日、0.43-m f/6.8 アストログラフ (Mayhill近郊, 
ニューメキシコ州, 米国, 遠隔操作)による60-秒露出20枚のスタックでは、恒星状にしか
見えず、5".7の円形範囲で測定した光度は20.2等であった

彗星機能の報告は次のとおり、

OC   Date        Reporter           Coma    Tail    PA          Exposures
568  2022-09-27  R. Weryk           0".3     2"     500-100     3x60s
C51  2022-10-09  J. Masiero        60"

発見位置は次のとおり、

     2022 UT             R.A. (2000) Decl.       Mag.
     Sept.19.25190   20 46 29.26   + 8 24 53.7   21.0
          19.26328   20 46 28.10   + 8 24 26.9   21.2
          19.27453   20 46 26.96   + 8 24 00.7   21.3
          25.25616   20 37 06.96   + 4 24 10.1   20.8
          25.26458   20 37 06.20   + 4 23 49.3   20.8
          25.27297   20 37 05.44   + 4 23 28.9   21.8
          25.39831   20 36 54.14   + 4 18 21.8   20.5
          25.39899   20 36 54.07   + 4 18 20.0   20.6

MPCの双曲線軌道要素、位置推算表は次のとおり、

Orbital elements:
    C/2022 S3 (PANSTARRS)                                                       
Epoch 2022 Aug. 9.0 TT = JDT 2459800.5                                          
T 2023 Jan. 21.70036 TT                                 Rudenko                 
q   0.8390155            (2000.0)            P               Q                  
z  -0.0010257      Peri.  267.92332     +0.10962027     -0.91920204             
 +/-0.0004041      Node   157.30483     +0.54399668     +0.37394885             
e   1.0008606      Incl.   78.60342     -0.83189604     +0.12340936             
From 58 observations 2022 Sept. 19-Oct. 9, mean residual 0".5.                  
                                                                                
Ephemeris:
Date    TT    R. A. (2000) Decl.     Delta      r    Elong.  Phase   m1
2022 09 12    20 59 00.6 +12 57 17   1.4283  2.3003   141.1    15.9  21.4
...
2022 09 27    20 34 36.5 +03 12 51   1.3610  2.1067   125.4    22.8  20.9
...
2022 10 05    20 24 31.4 -02 16 20   1.3587  2.0022   115.3    26.8  20.7
...
2022 10 11    20 18 36.6 -06 18 54   1.3691  1.9233   107.6    29.7  20.5
2022 10 12    20 17 46.0 -06 58 35   1.3717  1.9101   106.3    30.1  20.5
2022 10 13    20 16 57.9 -07 37 59   1.3745  1.8969   105.1    30.5  20.5
...
2022 10 19    20 13 01.4 -11 28 15   1.3951  1.8176    97.5    32.9  20.3
...
2022 10 27    20 10 04.0 -16 16 31   1.4299  1.7114    87.9    35.5  20.1
...
2022 11 11    20 11 11.5 -24 18 22   1.5005  1.5124    71.5    38.4  19.7

(MPEC 2022-T122、CBET 5179)


フラット表示 前のトピック | 次のトピック

題名 投稿者 日時
 » Comet C/2022 S3 (PANSTARRS) 佐藤裕久 2022-10-12 18:41

投稿するにはまず登録を
 
© 1999 Tsutomu Seki.